Simultaneous Nadir Overpasses (SNOs) Predictions

Prediction of SNOs between NOAA-20 and NOAA-19 Satellite Orbit:

Table of predicted SNOs for the next 14.0 days since TLE Epoch: 8/21/2020
Index Date (NOAA-20) Time (NOAA-20) Lat,Lon (NOAA-20) SZA (NOAA-20 ) Date (NOAA-19) Time (NOAA-19) Lat,Lon (NOAA-19) SZA (NOAA-19 ) Distance(km) Time Diff (sec)
1 09/04/2020 07:32:15 79.10, 35.67 73.69 09/04/2020 07:31:11 79.11, 35.83 73.70 3.41 64
2 09/04/2020 08:22:59 -79.08,-156.85 106.34 09/04/2020 08:22:07 -79.11,-156.85 106.29 3.38 52
3 09/04/2020 09:13:45 79.11, 10.26 73.73 09/04/2020 09:13:12 79.09, 10.21 73.73 2.32 33
4 09/04/2020 10:04:30 -79.12, 177.48 106.25 09/04/2020 10:04:08 -79.10, 177.52 106.26 2.93 22
5 09/04/2020 10:55:15 79.12, -15.15 73.76 09/04/2020 10:55:12 79.11, -15.15 73.75 0.79 3
6 09/04/2020 11:46:00 -79.13, 152.07 106.21 09/04/2020 11:46:08 -79.11, 152.16 106.24 2.44 8
7 09/04/2020 12:36:45 79.12, -40.57 73.79 09/04/2020 12:37:12 79.12, -40.51 73.78 1.27 27
8 09/04/2020 13:27:30 -79.13, 126.66 106.18 09/04/2020 13:28:08 -79.13, 126.80 106.21 2.95 38
9 09/04/2020 14:18:15 79.13, -65.98 73.83 09/04/2020 14:19:12 79.14, -65.87 73.81 2.89 57
10 09/04/2020 15:09:00 -79.14, 101.25 106.15 09/04/2020 15:10:09 -79.11, 101.17 106.19 2.99 69
